sat.trackr.live / text

‹ back to catalog

SKYSAT-C11

NORAD 42987 · 2017-068A

PAYLOAD ACTIVE UNKNOWN

§ Identity

Operator
Country
US
Launch date
2017-10-31
Launch site
AFWTR
Launch vehicle
Mass (kg)
RCS (m²)

Purposes: earth_obs

External: N2YO · Heavens-Above · Gunter

§ Orbital elements

Epoch: 2026-05-24T22:11:06.030240Z

Period
92.51 min
Inclination
97.4327°
Eccentricity
0.0001628
Mean motion
15.56548735 rev/d
Perigee alt
396.6 km
Apogee alt
398.8 km
Semi-major
6,775.8 km
B*
3.3320e-4
RAAN
292.7703°
Arg perigee
106.6518°
Mean anomaly
253.4915°
Rev number
47,962

§ Raw data

SKYSAT-C111 42987U 17068A   26144.92437535  .00023576  00000+0  33320-3 0  99932 42987  97.4327 292.7703 0001628 106.6518 253.4915 15.56548735479624

JSON: /api/v1/satellites/42987 · /tle

For live sub-satellite position, see the globe view (requires WebGL).

§ Visibility from observer

Set your observer location to see the next 7 days of passes ≥ 10°. The values pass through the URL so the page stays shareable.

No JS? Fill the form by hand. The geolocation button needs JavaScript.